Location: Karcze
(52.0945°N, 22.4786°E)
Time: 11:02:52
(UTC+00:00)

X-37B - Visible Passes

Search period start: 22 June 2021 00:00
Search period end: 02 July 2021 00:00
Orbit: 386 x 389 km, 45.0° (Epoch: 10 June)

Date Brightness Start Highest point End Pass type
(mag) Time Alt. Az. Time Alt. Az. Time Alt. Az.
22 Jun 2.2 00:10:41 18° S 00:10:41 18° S 00:12:22 10° SSE visible
23 Jun 2.2 20:35:35 10° SSW 20:37:43 17° SSE 20:37:46 17° SSE visible
24 Jun 1.9 21:13:00 10° SW 21:15:11 22° S 21:15:11 22° S visible
25 Jun 2.0 20:14:57 10° SW 20:17:23 20° S 20:19:36 11° ESE visible
25 Jun 2.6 21:50:56 10° WSW 21:51:53 15° SW 21:51:53 15° SW visible
26 Jun 1.9 20:52:41 10° SW 20:55:16 23° S 20:56:01 21° SSE visible
27 Jun 1.9 19:54:31 10° SW 19:57:05 22° S 19:59:38 10° ESE visible
27 Jun 2.4 21:30:50 10° WSW 21:32:18 17° SW 21:32:18 17° SW visible
28 Jun 2.0 20:32:27 10° WSW 20:34:58 21° S 20:36:14 17° SSE visible
29 Jun 2.6 21:10:55 10° SW 21:12:24 14° SSW 21:12:24 14° SSW visible
30 Jun 2.3 20:12:22 10° WSW 20:14:39 18° SSW 20:16:18 13° SSE visible
01 Jul 3.0 20:51:38 10° SW 20:52:23 11° SSW 20:52:27 11° SSW visible
